Weather History for Shirley, NY

Change the Weather History Date:

Monday, January 21, 2013

  Actual Average (KISP) Record (KISP)
Temperature  
Mean Temperature 28 °F 30 °F  
Max Temperature 32 °F 38 °F 57 °F (2006)
Min Temperature 24 °F 23 °F -3 °F (1984)
Degree Days  
Heating Degree Days 37 35  
Month to date heating degree days 723  
Since 1 July heating degree days 2650  
Cooling Degree Days 0 0  
Month to date cooling degree days 0  
Year to date cooling degree days 0  
Moisture  
Dew Point 21 °F    
Average Humidity 74    
Maximum Humidity 93    
Minimum Humidity 40    
Precipitation  
Precipitation 0.07 in 0.12 in 0.52 in (2012)
Month to date precipitation 2.54  
Year to date precipitation 2.54  
Snow  
Snow 0.00 in 0.20 in 5.00 in (2000)
Month to date snowfall 4.6  
Since 1 July snowfall 10.5  
Snow Depth -    
Sea Level Pressure  
Sea Level Pressure 29.95 in    
Wind  
Wind Speed 7 mph (West)    
Max Wind Speed 13 mph    
Max Gust Speed 17 mph    
Visibility 5 miles    
Events Fog , Snow    
T = Trace of Precipitation, MM = Missing Value Source: NWS Daily Summary

Daily Weather History Graph

Daily Weather History Graph

Search for Another Location

Airport:

Trip Planner

Search our weather history database for the weather conditions in past years. The results will help you decide how hot, cold, wet, or windy it might be!

Date:

Astronomy

Jan. 21, 2013 Rise Set
Actual Time 7:10 AM EST 4:55 PM EST
Civil Twilight 6:40 AM EST 5:25 PM EST
Nautical Twilight 6:07 AM EST 5:58 PM EST
Astronomical Twilight 5:34 AM EST 6:31 PM EST
Moon 12:33 PM EST (1/21) 2:36 AM EST (1/21)
Length of Visible Light 10h 44m
Length of Day
9h 45m
Waxing Gibbous, 75% of the Moon is Illuminated
Jan 21
Waxing Gibbous
Jan 26
Full
Feb 3
Last Quarter
Feb 10
New
Feb 17
First Quarter

Hourly Weather History & Observations

Time (EST) Temp. Windchill Dew Point Humidity Pressure Visibility Wind Dir Wind Speed Gust Speed Precip Events Conditions
12:56 AM 30.0 °F 20.5 °F 10.0 °F 43% 30.04 in 10.0 mi NW 11.5 mph - N/A   Clear
1:56 AM 28.9 °F 19.8 °F 8.1 °F 41% 30.06 in 10.0 mi NW 10.4 mph - N/A   Clear
2:56 AM 28.9 °F 19.8 °F 7.0 °F 40% 30.07 in 10.0 mi WNW 10.4 mph - N/A   Clear
3:56 AM 28.0 °F 18.6 °F 7.0 °F 41% 30.07 in 10.0 mi NW 10.4 mph - N/A   Clear
4:56 AM 27.0 °F 21.6 °F 8.1 °F 45% 30.08 in 10.0 mi NW 4.6 mph - N/A   Clear
5:56 AM 26.1 °F 21.9 °F 8.1 °F 47% 30.08 in 10.0 mi NW 3.5 mph - N/A   Clear
6:56 AM 24.1 °F - 8.1 °F 51% 30.11 in 10.0 mi Calm Calm - N/A   Clear
7:56 AM 24.1 °F - 10.9 °F 57% 30.11 in 10.0 mi Calm Calm - N/A   Clear
8:56 AM 28.9 °F - 10.0 °F 45% 30.11 in 10.0 mi Calm Calm - N/A   Mostly Cloudy
9:56 AM 28.9 °F - 8.1 °F 41% 30.12 in 10.0 mi Calm Calm - N/A   Overcast
10:56 AM 30.0 °F 24.1 °F 10.0 °F 43% 30.09 in 10.0 mi SSE 5.8 mph - N/A   Overcast
11:56 AM 30.9 °F 22.8 °F 12.0 °F 46% 30.04 in 10.0 mi SSE 9.2 mph - N/A   Overcast
12:56 PM 30.9 °F 24.3 °F 12.9 °F 47% 30.01 in 10.0 mi SSE 6.9 mph - N/A   Overcast
1:56 PM 32.0 °F 24.2 °F 17.1 °F 54% 29.98 in 10.0 mi South 9.2 mph - N/A   Overcast
2:56 PM 30.9 °F 22.8 °F 23.0 °F 72% 29.96 in 6.0 mi South 9.2 mph - 0.00 in Snow Light Snow
3:19 PM 30.2 °F 21.3 °F 24.8 °F 80% 29.95 in 2.5 mi South 10.4 mph - 0.00 in Snow Light Snow
3:27 PM 30.2 °F 22.6 °F 24.8 °F 80% 29.94 in 1.8 mi South 8.1 mph - 0.00 in Snow Light Snow
3:53 PM 30.2 °F 21.3 °F 26.6 °F 86% 29.93 in 2.5 mi SSW 10.4 mph 17.3 mph 0.00 in Snow Light Snow
3:56 PM 30.9 °F 22.8 °F 26.1 °F 82% 29.94 in 2.5 mi SSW 9.2 mph - 0.00 in Snow Light Snow
4:00 PM 30.2 °F 21.9 °F 26.6 °F 86% 29.93 in 3.0 mi South 9.2 mph - 0.00 in Snow Light Snow
4:11 PM 30.2 °F 20.8 °F 26.6 °F 86% 29.92 in 2.5 mi South 11.5 mph - 0.00 in Snow Light Snow
4:29 PM 30.2 °F 21.9 °F 26.6 °F 86% 29.92 in 3.0 mi SSW 9.2 mph - 0.00 in Snow Light Snow
4:51 PM 30.2 °F 22.6 °F 26.6 °F 86% 29.91 in 2.5 mi SSW 8.1 mph - 0.00 in Snow Light Snow
4:56 PM 30.0 °F 23.2 °F 26.1 °F 85% 29.92 in 2.0 mi SSW 6.9 mph - 0.00 in Snow Light Snow
5:17 PM 30.2 °F 25.4 °F 26.6 °F 86% 29.91 in 1.5 mi SSW 4.6 mph - 0.01 in Snow Light Snow
5:29 PM 30.2 °F 25.4 °F 26.6 °F 86% 29.91 in 2.0 mi SW 4.6 mph - 0.01 in Snow Light Snow
5:37 PM 30.2 °F 25.4 °F 26.6 °F 86% 29.92 in 2.0 mi SW 4.6 mph - 0.01 in Snow Light Snow
5:52 PM 30.2 °F 26.7 °F 26.6 °F 86% 29.91 in 1.8 mi WNW 3.5 mph - 0.02 in Snow Light Snow
5:56 PM 28.9 °F 23.9 °F 26.1 °F 89% 29.91 in 2.0 mi WNW 4.6 mph - 0.02 in Snow Light Snow
6:13 PM 28.4 °F 24.6 °F 26.6 °F 93% 29.91 in 4.0 mi SW 3.5 mph - 0.00 in Snow Light Snow
6:33 PM 28.4 °F 24.6 °F 26.6 °F 93% 29.90 in 9.0 mi NW 3.5 mph - 0.00 in   Overcast
6:56 PM 28.9 °F 23.9 °F 26.1 °F 89% 29.91 in 7.0 mi NW 4.6 mph - 0.00 in Snow Light Snow
7:56 PM 28.9 °F 22.8 °F 26.1 °F 89% 29.87 in 10.0 mi NNW 5.8 mph - 0.00 in   Overcast
8:26 PM 28.4 °F 18.0 °F 24.8 °F 86% 29.86 in 2.5 mi NNW 12.7 mph - 0.00 in Snow Light Snow
8:35 PM 28.4 °F 18.5 °F 24.8 °F 86% 29.86 in 1.2 mi NNW 11.5 mph - 0.00 in Snow Light Snow
8:49 PM 28.4 °F 20.4 °F 24.8 °F 86% 29.86 in 0.5 mi NNW 8.1 mph - 0.01 in Fog , Snow Snow
8:56 PM 28.0 °F 20.0 °F 25.0 °F 88% 29.86 in 0.5 mi NNW 8.1 mph - 0.03 in Fog , Snow Snow
9:14 PM 28.4 °F 21.2 °F 24.8 °F 86% 29.86 in 1.8 mi NNW 6.9 mph - 0.01 in Snow Light Snow
9:22 PM 28.4 °F 21.2 °F 24.8 °F 86% 29.86 in 2.5 mi NNW 6.9 mph - 0.01 in Snow Light Snow
9:29 PM 28.4 °F 20.4 °F 26.6 °F 93% 29.87 in 2.0 mi NNW 8.1 mph - 0.02 in Snow Light Snow
9:56 PM 28.0 °F 20.0 °F 26.1 °F 92% 29.86 in 1.8 mi NNW 8.1 mph - 0.02 in Snow Light Snow
10:16 PM 28.4 °F 22.2 °F 26.6 °F 93% 29.84 in 3.0 mi NNW 5.8 mph - 0.00 in Snow Light Snow
10:26 PM 28.4 °F 23.3 °F 26.6 °F 93% 29.85 in 5.0 mi NW 4.6 mph - 0.00 in Snow Light Snow
10:56 PM 28.0 °F 24.2 °F 25.0 °F 88% 29.84 in 4.0 mi WNW 3.5 mph - 0.00 in Snow Light Snow
11:13 PM 28.4 °F 24.6 °F 24.8 °F 86% 29.82 in 6.0 mi WNW 3.5 mph - 0.00 in Snow Light Snow
11:56 PM 27.0 °F 21.6 °F 24.1 °F 89% 29.83 in 7.0 mi WNW 4.6 mph - 0.00 in Snow Light Snow